METEOR-M2 2 (44387 NORAD) Tracking and Keplerian Element Data

This shows tracking and keplerian element data for the satellite.

Feedback or suggestion? Click here.




ElementValue
Catalog44387
NameMETEOR-M2 2
Epoch Orbit1525
Epoch Day293.50149853
Epoch Year2019
RAAN253.829
Inclination98.5838
Eccentricity0.0002556
Argument of Perigee113.374
Mean Anonmoly246.7708
Mean Motion14.23334881
Decay Rate-2.5E-07
L11 44387U 19038A 19293.50149853 -.00000025 00000-0 81124-5 0 9995
L22 44387 98.5838 253.8290 0002556 113.3740 246.7708 14.23334881 15259

Live tracking and technical data element details for METEOR-M2 2 (NORAD 44387). METEOR-M2 2 can be tracked NOW for your location showing map with azimuth and elevation plus other details from your city location.

Track the satellite on the map from your city or location and see movement details for azimuth, elevation, latitude, longitude, range, height, and movement on the map or in text.







IsCatalogInMostPopularTable: catalog: 44387, numindb: 24
Update: records affected: 1



GetName: 44387 METEOR-M2 2

Hit Count: updated at: Wed, 23 Oct 2019 00:17:13 GMT